Theta_e
314 313 313 313 313 313 313 313 312 311 310 309 308 308 306 305 305 305 304 304 305 307 307 307 308 308 309 308 307 308 308 312 317 316 318 319 315 315 314 315 315 312 313 313 313 314 314 315 314 315 316 317 319 320 319 319 319 320 320 316 314 316 317 318 318 317 317 318 316 314 315 316 316 314 314 314 314 314 315 315 315 316 315 317 317 317 325 327
314 313 313 313 313 312 312 312 312 311 309 308 308 308 307 305 305 304 304 304 304 306 306 307 308 308 308 307 308 309 309 315 319 317 318 317 315 316 315 316 315 312 313 315 315 314 314 315 314 315 316 316 318 319 319 319 318 319 319 316 316 318 318 318 318 317 318 318 316 315 315 316 316 315 315 314 315 315 315 316 315 316 315 317 317 317 323 326
314 313 313 312 312 312 312 311 311 310 308 308 308 308 307 306 305 304 304 304 304 305 306 307 307 308 308 307 309 308 311 317 317 316 316 314 314 317 317 316 314 313 314 316 316 314 315 315 314 315 315 315 316 316 318 318 317 318 318 317 316 319 317 317 317 316 316 317 317 316 315 315 316 316 315 314 316 316 316 316 315 316 316 317 317 317 322 326
313 313 312 312 312 312 311 311 311 311 309 308 308 308 307 305 304 304 304 304 305 304 306 307 307 308 307 308 310 310 317 318 314 316 315 313 315 318 318 315 314 314 315 315 314 314 315 315 315 315 315 315 315 315 316 316 317 317 315 316 316 316 316 316 316 316 315 316 317 316 314 315 315 315 315 315 315 316 316 316 316 317 316 318 318 318 322 325
313 313 312 311 311 311 311 310 311 311 310 309 308 308 307 306 304 304 304 304 305 305 306 306 307 307 307 309 309 312 319 316 313 316 314 313 315 316 317 314 314 315 315 314 315 315 314 315 315 315 316 316 315 315 315 314 316 316 314 315 316 315 317 315 314 314 313 315 316 316 315 315 315 314 315 316 315 316 316 316 317 317 317 319 319 319 322 324
314 313 312 311 311 311 311 311 311 311 311 310 309 307 307 306 304 304 304 305 305 305 306 306 307 307 308 310 309 313 317 312 314 316 313 313 314 314 315 314 315 315 314 315 316 315 315 315 315 315 315 316 315 315 315 314 315 316 315 315 315 315 316 315 313 312 312 315 316 315 315 315 315 315 315 315 315 316 316 316 317 317 317 320 321 320 322 324
314 313 312 311 311 311 311 311 311 311 311 310 309 308 307 305 305 304 305 305 305 306 306 307 307 308 310 310 311 315 316 314 315 314 312 313 313 314 315 315 316 315 315 317 316 316 315 315 315 316 315 315 315 315 315 314 315 316 316 315 314 314 315 314 313 312 312 314 315 315 315 315 315 315 316 315 315 316 316 317 317 316 316 318 321 321 322 324
314 313 312 311 310 310 311 311 311 311 310 309 310 309 307 306 305 305 305 305 306 306 307 307 308 309 310 312 316 317 315 317 315 312 312 313 313 315 315 316 316 316 317 317 317 316 315 315 315 316 316 315 315 315 315 315 315 316 316 315 314 314 315 313 313 312 312 313 313 313 314 315 316 315 314 315 315 316 316 316 315 315 315 315 319 321 321 322
314 313 312 311 310 310 310 311 311 310 309 309 310 309 308 307 306 306 306 306 307 307 308 308 309 311 311 315 318 314 315 318 314 312 313 313 314 314 315 317 316 316 317 317 317 317 315 316 315 315 315 315 316 315 315 316 316 316 316 315 315 315 315 313 313 313 313 314 313 314 315 315 314 314 314 316 316 316 316 316 315 315 315 314 316 319 320 320
313 312 311 311 310 310 310 311 311 310 310 310 310 310 309 308 306 306 306 307 308 309 309 309 310 311 312 316 315 312 317 317 313 312 313 312 314 314 316 317 316 317 318 317 317 317 317 317 316 317 317 316 316 315 315 316 316 315 316 315 316 316 315 314 315 314 313 314 313 314 316 315 313 314 316 317 317 316 316 316 316 316 315 315 315 316 319 320
313 312 311 311 310 309 310 310 309 310 311 310 310 310 310 308 307 307 307 308 309 310 310 311 311 311 314 316 311 313 319 317 314 312 312 312 313 315 317 316 316 318 318 317 318 317 317 317 317 317 317 316 315 316 315 314 314 315 315 316 315 315 315 315 316 315 315 315 314 314 316 315 314 314 316 318 316 316 316 316 316 316 316 316 316 316 318 320
312 311 311 310 309 309 310 309 308 310 311 310 309 310 309 308 307 307 308 309 310 311 311 311 312 313 315 314 312 317 318 316 314 312 312 313 313 315 316 315 316 318 318 318 317 316 315 317 317 316 316 316 316 316 314 313 314 315 315 317 317 316 316 316 316 315 315 316 314 315 315 315 316 315 316 318 316 316 316 316 317 317 317 316 317 316 317 319
312 311 310 310 309 309 309 309 308 310 311 310 310 309 309 309 308 307 309 310 311 311 311 312 313 314 315 313 316 318 317 315 313 312 312 313 314 316 316 316 316 316 317 318 316 314 314 315 317 316 315 316 316 315 314 314 315 315 316 317 317 317 317 316 316 315 315 315 314 314 314 315 318 317 317 318 316 316 316 317 317 317 317 317 318 317 317 318
311 312 311 310 309 309 309 309 309 310 310 310 310 310 310 309 308 308 309 311 311 312 312 313 313 313 314 313 316 317 316 313 313 313 313 313 315 315 315 315 315 315 316 315 314 313 314 316 317 316 315 315 315 313 315 316 315 317 317 316 317 315 315 317 315 315 316 314 313 315 313 315 318 318 318 317 315 316 316 317 317 317 318 317 318 318 317 318
311 311 311 311 310 309 309 310 311 311 311 311 311 312 311 309 309 309 310 311 312 312 313 314 313 314 313 313 315 317 316 314 314 314 313 314 317 316 315 315 314 315 314 314 313 313 315 317 317 316 314 314 315 315 317 316 316 317 314 313 317 315 314 318 315 315 317 314 314 315 314 315 318 318 317 315 314 315 315 317 317 317 317 317 318 318 318 317
311 310 310 311 310 309 309 310 311 312 312 312 312 312 311 310 310 310 311 312 312 313 314 317 315 314 312 314 315 316 316 317 316 314 312 315 318 317 316 315 315 315 315 314 314 315 316 316 316 316 315 314 316 317 317 315 315 317 314 312 317 316 313 316 315 314 316 315 315 315 314 316 317 318 316 314 314 315 315 317 317 318 318 318 318 317 318 318
312 311 310 311 311 310 310 310 311 312 312 311 311 312 312 312 312 312 313 313 315 314 314 317 314 312 311 313 314 314 317 319 317 314 312 314 317 317 317 317 317 316 316 316 316 317 317 315 315 316 316 316 317 317 315 313 312 315 316 313 315 316 313 313 314 315 314 314 316 316 315 316 317 317 317 316 316 316 316 317 317 317 318 318 318 317 317 317
312 312 311 311 311 311 310 311 311 311 311 311 312 313 314 315 314 315 315 314 314 312 311 312 311 311 310 310 313 316 318 318 316 314 313 313 315 316 317 317 317 317 317 316 316 317 317 316 316 317 317 316 316 317 313 312 312 314 315 313 312 315 313 312 314 315 314 315 315 316 316 316 317 317 317 317 317 317 317 317 317 317 317 317 318 318 318 318
312 312 312 311 311 311 310 311 310 310 311 312 313 315 315 315 315 316 317 315 312 309 309 311 310 311 311 312 316 317 317 316 315 315 314 313 314 315 317 317 317 317 316 316 317 316 317 318 317 317 317 316 316 316 314 315 315 314 315 314 312 313 313 314 315 314 314 315 315 316 315 316 317 316 317 317 317 317 318 318 318 317 317 317 317 317 318 318
312 312 312 312 312 311 311 311 310 310 312 313 316 316 316 315 313 313 315 313 311 311 312 313 311 311 313 315 317 315 315 315 315 316 315 314 315 316 316 317 318 318 316 317 318 316 316 318 317 316 317 317 317 316 316 317 315 314 315 314 314 313 313 315 317 313 314 315 315 316 316 316 317 317 317 317 317 317 317 317 318 318 318 318 318 318 319 319
313 312 312 312 312 311 311 311 310 311 312 315 317 318 314 312 312 312 313 311 312 314 313 314 314 313 315 316 316 316 316 316 316 317 315 314 316 316 316 316 317 317 316 319 318 316 316 317 317 317 317 317 317 317 316 315 315 315 314 314 314 314 315 316 317 314 314 314 315 316 316 316 317 317 317 317 317 317 317 318 318 318 318 319 319 319 320 319
314 313 312 312 312 312 312 311 311 311 312 314 316 318 315 313 313 313 313 311 312 315 314 313 314 314 314 315 316 316 316 316 316 316 315 314 316 316 315 316 315 316 317 317 317 316 316 316 317 317 316 316 316 316 315 315 316 315 315 315 315 316 316 316 318 315 314 314 316 316 316 316 317 317 317 318 317 318 318 318 318 319 319 319 319 320 320 320
315 314 313 313 313 313 312 312 311 311 313 314 316 317 315 312 311 310 312 312 313 315 313 312 313 313 314 315 315 315 315 315 316 316 315 315 316 315 316 315 314 317 317 316 316 315 315 315 316 317 315 315 315 315 315 315 316 317 316 315 315 318 317 313 315 317 315 315 315 316 317 317 318 317 317 318 317 318 319 318 319 320 320 320 321 321 321 320
315 314 313 314 313 313 312 312 311 312 314 315 316 317 313 312 311 311 314 313 311 313 313 313 313 313 314 315 314 315 315 315 316 317 315 315 315 315 316 315 314 317 317 315 315 315 316 316 315 315 315 315 315 315 316 315 315 317 318 316 315 318 317 314 316 318 316 316 316 317 317 316 319 320 320 320 320 319 320 319 320 321 321 321 321 322 322 321
317 315 314 314 313 313 312 312 313 313 314 315 315 314 312 313 313 311 313 312 309 312 313 313 314 313 314 314 314 315 314 313 315 317 316 316 315 315 315 315 315 316 316 316 315 314 316 315 314 316 315 316 317 316 317 317 314 315 319 319 316 316 317 316 319 319 315 315 317 318 316 315 318 321 321 321 321 320 320 321 320 321 321 321 321 321 322 321
318 316 315 315 314 313 312 313 314 313 314 315 315 313 311 313 313 311 312 310 310 312 311 311 313 312 312 314 315 314 311 312 315 317 317 316 315 314 314 315 315 315 316 315 315 316 316 314 315 318 317 318 319 316 318 319 313 313 318 320 318 318 318 318 320 318 314 314 318 319 317 316 317 317 319 319 319 319 319 320 321 320 321 321 321 321 321 321
320 318 316 316 314 313 313 315 315 313 314 314 314 311 311 312 312 311 310 309 311 313 312 310 311 311 313 315 314 311 310 312 314 315 316 315 315 314 314 315 314 314 316 316 315 316 317 315 316 319 318 319 319 317 319 319 314 316 320 320 319 318 319 320 320 318 316 318 320 319 319 319 316 317 319 319 319 319 319 319 320 320 320 320 321 322 322 322
320 319 318 317 315 314 315 315 315 314 313 313 312 310 312 313 312 310 307 309 313 314 313 311 309 311 314 315 313 310 310 312 314 315 314 314 314 314 314 315 315 315 316 315 315 315 317 318 318 318 318 319 319 318 320 319 316 319 319 319 319 319 320 321 320 319 320 321 320 320 320 317 315 317 318 319 318 318 319 319 319 320 320 321 322 323 322 321
320 320 319 317 316 315 315 315 315 315 314 313 311 310 313 313 312 311 308 310 314 313 312 312 310 311 314 314 312 311 310 312 315 315 313 313 314 314 313 314 315 315 315 314 316 318 316 315 317 318 319 319 318 316 318 319 318 318 317 318 319 319 320 320 320 319 320 322 320 321 321 314 312 315 318 320 319 318 319 318 319 319 320 323 324 323 322 320
319 319 319 318 316 314 314 314 315 315 314 313 311 311 314 313 311 309 309 311 314 313 311 311 312 313 313 312 311 311 311 313 314 314 314 314 314 313 312 313 314 316 316 315 317 317 314 311 313 317 317 317 315 313 315 319 318 317 318 320 320 320 320 320 320 319 319 319 318 320 320 313 312 315 317 320 320 318 319 317 318 319 319 323 325 324 322 319
318 319 319 318 316 314 314 315 316 316 314 312 312 313 314 312 310 309 311 311 312 314 312 311 313 313 312 313 313 312 312 314 314 314 315 315 314 314 313 314 315 316 317 317 317 317 316 314 315 315 314 314 315 314 314 315 317 319 320 319 319 320 321 319 320 321 319 317 317 320 321 317 316 316 316 319 320 318 318 316 317 319 318 322 325 323 320 318
316 318 318 318 317 315 315 316 317 316 313 311 313 314 313 311 311 312 312 309 310 315 314 314 315 314 313 314 314 313 313 315 315 315 316 315 316 315 314 314 315 316 316 316 318 318 317 317 316 315 313 314 317 317 315 315 316 319 319 319 318 316 318 319 321 323 320 317 318 319 320 320 318 317 317 319 320 319 318 318 319 320 319 320 324 323 320 317
313 316 317 317 317 316 315 316 318 316 312 312 314 315 313 311 311 312 311 308 311 316 316 316 316 314 313 314 315 314 313 315 315 315 317 317 317 316 315 315 315 316 315 315 318 318 318 319 318 317 314 314 317 317 317 316 316 318 319 319 318 314 315 319 319 319 318 317 317 317 319 320 317 317 319 319 319 319 318 318 320 322 321 321 322 323 321 319
312 313 315 317 317 316 316 316 317 315 312 313 314 313 313 312 312 312 311 312 315 316 316 316 315 315 315 315 316 315 314 316 316 316 318 318 318 318 317 316 315 316 316 315 317 318 317 318 319 319 316 315 318 318 317 318 317 317 319 319 317 314 314 316 316 315 316 316 316 316 318 317 315 315 319 319 319 320 319 319 320 321 322 323 323 323 322 320
312 312 313 316 316 316 316 315 316 314 311 312 314 312 313 314 314 313 312 315 317 316 316 316 316 316 316 316 316 314 314 316 316 317 318 318 317 318 318 316 316 317 316 315 317 318 316 316 319 319 317 316 318 319 319 318 317 317 319 320 320 317 314 314 316 316 315 316 317 317 316 316 315 317 318 318 319 319 319 320 320 320 321 321 322 322 322 320
313 312 312 314 316 316 315 315 315 311 310 313 313 311 313 316 316 315 314 316 318 317 316 316 316 316 316 316 316 315 315 317 317 317 318 318 318 318 318 317 317 317 317 314 315 318 316 317 320 318 316 315 316 318 319 317 317 317 319 321 320 320 317 315 317 316 315 316 316 316 316 315 315 317 318 318 318 318 319 319 319 319 320 320 322 325 324 324
313 312 312 314 315 316 315 315 313 311 312 315 313 312 314 316 317 317 316 317 317 317 317 316 317 317 316 316 316 315 315 316 317 317 317 318 318 318 318 318 317 317 316 314 315 317 315 316 318 317 317 315 313 316 318 316 318 318 319 319 318 318 318 316 317 317 317 318 317 316 317 316 314 317 319 319 318 318 318 318 318 319 320 320 322 325 325 325
312 313 313 313 315 316 315 314 313 311 313 314 313 314 315 314 316 318 316 317 317 317 317 316 316 317 317 317 316 316 315 315 316 316 316 317 316 316 318 318 318 317 316 314 315 317 315 315 316 315 317 315 312 315 317 316 317 318 318 318 318 318 318 316 317 318 318 319 320 318 317 316 315 316 317 318 319 318 318 318 319 318 319 320 321 323 323 323
312 313 313 313 313 315 315 314 312 312 313 314 313 315 316 314 316 318 316 316 317 317 315 315 316 318 318 318 317 317 315 315 317 316 316 316 315 316 317 317 318 317 315 314 314 316 315 313 316 314 314 316 314 315 318 317 316 316 316 318 318 318 318 318 318 317 316 318 319 318 317 316 317 317 317 318 318 318 318 318 320 319 320 321 321 322 323 323
312 313 313 313 312 314 315 313 312 313 313 313 313 314 315 314 316 317 316 316 318 317 316 316 316 317 318 319 318 318 316 316 318 317 316 317 316 317 317 316 317 317 316 315 314 315 315 312 315 315 314 316 316 316 318 318 317 316 315 317 318 318 317 318 319 317 317 318 317 318 319 316 316 318 319 318 318 319 318 319 320 321 321 322 322 324 326 326
311 313 313 313 313 313 314 314 314 314 312 311 311 311 313 314 315 316 315 315 317 316 316 318 318 317 319 319 319 319 317 316 318 317 316 316 316 317 317 316 317 318 317 316 315 315 315 313 314 316 315 316 318 318 318 318 319 318 316 317 318 318 318 319 320 319 318 319 318 318 319 317 316 318 318 318 318 318 319 319 319 321 321 322 324 326 326 326
311 313 313 313 314 314 314 315 315 314 311 310 311 311 312 314 316 317 315 314 315 315 314 316 318 318 319 319 319 319 318 317 319 318 317 317 317 317 317 316 317 317 317 317 317 316 316 315 315 317 318 318 318 316 315 316 318 319 318 318 318 318 318 318 320 320 319 320 319 319 320 320 318 318 318 317 318 318 319 319 318 319 321 323 327 326 324 323
309 312 313 314 314 313 314 316 316 314 310 310 311 311 312 314 315 316 315 315 316 316 316 317 317 318 319 319 319 319 319 318 319 319 318 318 318 318 317 315 317 318 316 317 318 317 316 316 315 316 318 318 316 315 314 314 316 318 319 318 319 319 319 318 318 318 320 321 319 319 321 321 321 322 321 320 321 322 321 320 320 320 322 324 325 323 322 322
308 310 312 313 313 313 314 316 316 316 313 311 311 312 312 313 314 315 315 315 316 317 317 317 318 318 318 318 319 320 319 319 320 320 319 319 319 317 317 317 317 317 316 318 319 316 316 316 315 316 318 319 319 318 317 316 316 317 318 319 319 319 321 322 319 318 320 322 321 321 320 320 322 325 322 320 322 321 319 318 319 321 324 325 323 322 321 321
307 308 310 312 313 313 313 314 314 316 315 313 313 312 312 313 313 313 315 315 315 317 318 318 319 318 317 318 319 320 320 320 321 320 319 320 318 316 316 319 317 314 318 323 321 317 317 318 316 316 318 320 321 321 320 318 317 317 318 319 320 320 321 322 320 319 320 322 323 322 319 317 319 321 318 317 319 319 317 317 318 319 320 322 324 324 322 321
306 307 308 310 311 311 313 313 312 314 315 314 314 313 313 313 313 312 314 315 315 315 317 319 319 317 316 317 318 318 319 320 320 319 318 318 318 316 314 317 318 317 320 323 321 320 321 320 317 317 318 318 320 322 322 320 318 318 319 319 319 320 321 321 321 321 321 321 321 321 320 319 319 318 318 317 317 318 317 317 318 318 319 321 324 323 320 320
305 306 307 309 310 310 310 312 313 313 313 315 315 314 314 314 314 314 314 314 315 314 315 317 317 316 316 316 317 317 317 318 318 318 317 317 318 318 314 314 317 317 317 318 318 321 322 320 318 319 319 318 318 321 322 321 319 319 319 319 320 320 321 322 322 321 320 321 321 320 320 322 320 318 318 318 317 318 318 317 318 319 320 322 323 322 319 318
304 305 305 307 310 310 309 309 311 313 313 314 314 315 315 314 315 315 314 313 314 314 315 316 316 316 315 315 316 317 317 317 318 317 317 317 317 318 316 315 316 315 314 316 319 322 322 319 319 320 319 319 319 319 320 320 320 320 320 320 320 320 321 322 322 321 320 321 321 320 321 322 320 318 318 319 318 319 318 318 318 318 319 321 321 322 321 320
303 304 305 306 308 310 309 308 308 310 313 314 313 314 315 315 315 315 314 314 314 314 314 316 316 315 315 315 316 317 317 317 318 317 316 317 317 316 316 317 317 314 314 317 319 321 321 318 318 320 319 318 318 319 319 319 320 320 320 320 320 321 321 321 320 320 321 321 320 320 321 321 319 318 318 318 319 319 319 319 319 318 319 319 321 322 322 321
302 303 304 305 306 307 307 307 307 308 310 312 313 313 314 315 314 315 314 314 314 314 314 315 315 315 315 316 316 317 317 317 318 317 316 316 317 316 316 317 317 315 314 316 317 318 318 318 319 319 319 319 319 319 319 319 320 320 320 320 320 321 322 322 321 320 321 321 320 320 321 321 319 318 318 318 319 319 319 319 319 319 319 319 319 320 320 322
302 303 304 305 305 306 306 307 308 309 309 310 312 313 313 314 314 314 315 314 314 315 314 314 315 315 315 316 316 317 316 316 317 317 316 316 316 316 316 316 318 317 314 315 317 317 316 317 318 318 319 320 320 319 319 319 320 320 320 320 320 320 321 322 322 321 321 321 321 322 322 321 319 318 318 319 318 319 319 319 319 320 319 319 319 318 319 320
302 302 303 303 304 304 305 306 308 309 310 310 310 312 313 313 313 313 315 314 313 314 314 314 314 315 316 316 316 316 316 316 316 317 318 318 315 315 316 316 317 318 315 315 317 317 315 315 317 318 320 321 320 320 319 319 320 321 320 319 319 319 319 320 321 321 321 321 321 321 321 320 319 318 319 319 319 319 319 319 320 320 319 319 319 318 318 318
Wind_Speed
8 7 6 6 6 5 5 5 5 6 7 7 7 7 7 7 7 7 7 7 8 8 8 8 7 6 5 4 3 3 2 2 3 4 4 2 2 5 6 3 1 1 2 2 3 4 4 5 4 3 4 2 0 1 1 1 1 3 4 4 4 3 2 3 4 2 1 2 7 9 10 8 6 7 4 2 5 6 4 5 5 3 3 3 7 8 8 10
10 8 7 6 6 4 4 5 5 6 6 7 8 7 7 7 6 7 7 7 8 8 8 8 7 7 5 4 3 3 3 3 5 4 1 3 5 6 6 3 2 1 2 2 3 5 5 3 5 5 4 3 1 1 2 0 1 3 3 5 4 0 3 3 0 2 2 1 6 9 8 7 3 6 6 5 8 8 8 8 8 8 7 7 9 9 10 10
12 9 8 7 6 5 4 5 5 5 6 7 8 8 8 7 7 7 7 7 7 8 8 8 7 7 6 5 3 4 3 4 6 3 1 3 5 6 6 4 2 2 2 2 4 5 3 1 4 6 4 3 1 2 3 0 1 2 2 5 1 3 5 4 3 5 5 3 4 8 5 5 2 3 6 6 7 8 9 8 8 9 10 11 11 11 12 12
12 10 8 7 6 5 4 5 5 5 6 7 8 8 8 8 8 7 7 7 7 8 8 8 7 7 6 4 4 3 3 5 4 3 1 3 5 7 6 4 3 2 2 2 3 4 3 2 5 5 4 3 2 3 4 2 1 1 2 3 3 3 2 4 4 5 6 4 2 6 4 6 3 2 5 6 8 7 9 10 10 10 10 11 13 13 14 14
12 11 8 7 6 5 5 5 5 5 6 7 7 8 8 8 8 7 7 7 8 8 8 8 7 7 6 4 5 3 2 4 2 4 2 4 6 7 6 4 3 2 2 2 3 4 4 5 5 5 4 3 5 4 3 3 1 2 1 3 5 2 1 4 3 4 4 3 2 5 4 5 4 3 7 8 9 5 1 3 5 5 4 7 14 13 14 14
15 12 9 8 7 6 5 5 5 5 5 6 7 7 8 8 8 8 8 8 8 8 8 9 8 7 6 4 4 3 4 2 2 2 5 7 7 7 5 4 3 2 3 3 4 5 5 6 6 5 4 3 5 3 3 3 1 2 2 3 3 4 3 3 3 3 1 1 2 3 2 2 3 7 8 10 13 6 4 5 3 4 4 6 13 13 13 14
16 14 11 8 7 7 6 6 5 5 5 6 6 6 6 7 8 8 8 8 8 8 9 9 8 7 6 4 2 4 6 0 3 3 7 7 7 7 5 4 3 3 2 4 6 5 5 7 6 4 4 3 3 3 4 3 2 3 1 5 3 4 3 3 3 2 0 1 0 1 1 3 8 6 3 8 14 11 2 6 5 6 6 4 9 11 12 14
16 15 13 11 9 7 7 6 5 5 6 6 5 5 5 6 7 7 8 8 8 9 10 9 8 7 7 5 2 5 5 2 5 6 7 7 6 6 5 4 2 2 1 4 3 4 5 6 5 4 4 2 2 4 3 4 4 3 2 6 2 3 3 4 3 2 2 1 1 0 3 5 5 4 4 9 12 13 10 5 5 4 4 4 8 10 11 12
16 15 14 13 11 8 8 7 6 5 5 5 4 4 5 5 6 7 8 8 9 10 9 9 8 7 7 5 4 6 3 5 7 8 8 6 6 5 4 2 2 1 2 1 2 3 4 4 4 3 1 3 3 5 2 4 2 1 4 5 3 4 3 3 3 3 3 2 2 4 6 3 1 5 8 13 12 10 7 5 5 5 5 6 8 9 10 11
17 15 13 14 12 9 9 8 6 5 5 5 4 4 4 5 5 6 7 8 9 9 9 8 8 7 7 5 6 5 3 6 9 9 8 6 6 5 3 3 3 2 2 1 1 2 2 2 2 1 1 4 3 2 0 2 1 2 4 4 3 3 3 2 2 4 3 2 3 6 5 3 1 3 8 7 3 3 4 6 6 6 8 9 9 9 10 11
17 16 14 14 14 10 8 7 6 5 5 5 5 5 4 4 5 6 7 8 8 9 8 7 8 8 5 6 7 3 4 6 9 9 8 6 6 3 2 4 3 1 1 3 3 4 3 2 3 0 1 4 5 4 2 1 1 2 3 2 3 3 3 3 3 4 4 2 3 4 4 5 2 4 13 4 4 3 5 7 7 7 8 9 10 9 9 10
16 16 14 13 13 11 8 7 7 6 5 5 5 5 4 4 5 7 7 8 9 9 9 7 9 7 4 6 5 2 4 6 9 10 8 6 5 4 4 5 4 1 1 2 4 4 4 3 1 1 2 3 5 5 3 2 0 2 2 4 6 6 5 6 4 3 3 2 3 1 5 9 9 13 18 7 6 4 5 7 7 8 8 8 9 8 8 9
14 14 12 11 11 10 9 8 7 6 5 5 5 4 5 4 5 7 7 8 9 10 9 9 9 6 4 5 2 5 5 7 10 10 8 7 6 5 6 6 6 3 1 4 5 3 4 3 4 1 3 1 2 3 3 3 1 3 4 3 3 6 6 7 5 3 4 2 3 2 5 7 9 16 14 5 7 5 6 9 9 8 8 8 8 7 8 9
12 13 12 11 11 10 9 8 7 6 5 4 3 4 4 3 4 6 7 8 9 9 8 8 8 5 4 2 3 5 6 8 9 9 10 8 6 7 8 7 7 6 6 9 8 6 6 3 0 4 3 3 3 3 4 4 3 3 3 2 3 5 3 7 5 5 6 2 4 4 5 7 6 7 5 5 4 5 8 10 9 9 8 7 7 8 8 9
12 13 12 10 10 9 9 8 7 6 5 4 3 3 4 4 5 7 9 8 7 7 6 5 6 3 4 2 3 4 7 7 7 8 12 10 7 7 8 9 11 10 10 11 9 8 6 2 1 4 3 2 3 5 4 4 4 2 2 4 4 4 3 7 5 5 3 2 5 6 5 7 5 3 6 3 2 4 8 9 8 9 8 7 7 7 8 9
11 12 13 11 9 8 9 8 7 6 5 5 4 4 4 4 5 7 8 7 6 6 4 3 5 4 5 3 4 4 5 5 7 10 13 11 6 6 9 9 10 8 8 9 8 6 4 2 1 1 2 3 4 5 3 3 4 3 4 4 3 4 4 4 3 2 1 2 6 8 7 5 1 3 5 3 3 4 6 8 8 9 8 7 7 7 7 8
11 10 12 11 9 8 8 7 7 7 7 6 4 3 3 3 5 6 6 7 6 5 2 1 2 4 3 3 3 4 5 5 8 9 11 10 6 8 10 7 6 6 6 5 4 2 1 2 1 1 2 3 4 4 4 4 4 5 4 4 3 4 5 3 2 3 3 3 5 9 10 11 9 6 3 5 6 7 9 10 11 10 9 8 7 8 9 9
12 10 10 10 10 9 8 7 6 7 7 6 5 5 6 7 7 7 6 8 7 5 1 2 2 3 3 4 3 4 7 7 8 9 9 9 8 8 5 3 6 6 6 4 2 2 1 2 2 2 3 4 4 5 5 3 2 3 4 4 4 4 6 6 1 4 5 4 6 8 10 14 15 13 11 9 9 11 12 13 12 12 12 11 10 11 11 11
12 11 10 9 9 9 8 7 6 6 5 5 7 10 10 9 8 6 4 4 5 3 1 4 7 3 1 6 5 6 8 9 9 8 7 9 9 7 3 4 6 4 4 4 3 2 1 3 3 3 5 6 7 8 6 1 3 1 0 2 4 3 6 5 2 4 2 4 8 11 12 15 16 14 14 13 12 13 15 14 12 12 12 11 12 12 12 13
11 11 11 9 8 8 7 7 6 6 6 5 7 7 6 7 5 4 4 4 4 1 3 1 5 2 3 6 8 9 10 8 5 5 8 10 10 8 6 5 5 3 4 3 3 2 2 3 5 6 6 7 9 8 2 3 4 2 2 3 5 5 6 5 4 6 1 3 8 11 12 15 17 16 15 14 13 14 16 16 14 12 11 11 13 14 14 14
10 9 10 9 8 7 7 6 6 9 9 6 5 4 3 5 4 3 6 6 5 1 4 3 2 2 4 5 9 9 6 3 2 4 9 11 9 8 7 6 6 5 4 2 4 2 2 5 7 7 3 1 4 4 1 1 1 3 4 4 5 5 7 7 1 6 4 2 7 10 12 15 16 16 16 14 15 16 17 17 16 15 14 12 14 16 14 12
10 9 8 8 8 7 6 6 6 8 8 5 6 5 3 2 0 2 3 5 6 3 1 2 1 2 4 4 7 4 2 4 5 6 9 10 9 8 7 8 8 6 6 5 3 3 4 7 7 3 4 5 3 2 3 4 3 3 4 3 5 3 5 7 1 6 4 3 6 9 10 12 14 17 18 17 16 16 17 17 16 15 15 14 15 14 12 11
11 9 8 8 7 6 6 7 7 6 7 6 7 6 4 3 0 1 1 4 4 3 4 5 5 5 4 3 5 5 5 6 6 8 10 9 9 7 7 9 10 6 7 8 7 5 5 5 3 4 5 4 3 4 5 4 4 5 4 4 4 1 2 4 2 3 3 5 5 9 10 10 13 16 19 20 19 17 17 17 16 14 15 16 15 12 11 12
13 11 9 8 7 6 6 6 6 5 7 8 11 10 4 2 2 1 2 3 2 3 3 3 3 5 5 4 6 9 5 2 3 9 12 10 7 5 6 9 10 7 7 10 10 9 5 2 2 3 4 5 5 6 7 5 4 6 7 6 5 4 4 5 3 5 7 5 1 7 10 8 9 13 12 11 12 13 14 14 14 13 14 14 13 12 11 12
15 14 12 10 8 7 6 5 6 6 6 7 13 16 10 3 1 1 1 3 3 2 1 2 2 5 6 5 7 7 2 2 2 7 13 10 5 5 5 4 6 9 10 11 11 10 5 4 4 5 4 6 7 6 7 6 4 5 8 9 8 7 6 7 5 7 7 3 2 3 7 4 4 8 8 4 6 10 10 11 13 13 12 12 11 11 11 10
16 16 15 13 11 10 7 3 6 6 6 7 11 13 11 6 2 0 1 3 4 3 4 5 5 7 9 7 7 4 1 4 2 5 10 7 1 1 3 3 1 5 8 8 6 5 2 4 3 6 6 6 6 5 8 7 5 4 3 5 8 8 6 7 5 3 5 5 1 1 4 6 4 7 10 7 9 13 10 10 12 12 11 10 9 9 8 8
16 17 17 16 15 14 6 1 6 8 4 6 9 11 10 9 4 0 2 4 5 5 6 3 3 7 9 9 11 7 2 4 6 4 6 4 2 1 3 6 3 2 3 4 3 2 5 6 5 7 6 6 6 5 7 9 6 2 1 1 3 4 5 4 3 4 5 7 6 4 4 8 8 7 10 11 12 14 11 10 12 11 11 10 9 7 6 6
16 18 19 19 20 17 7 3 8 9 4 3 5 13 12 8 4 1 3 6 3 5 4 2 3 5 6 7 11 6 1 5 6 3 3 1 3 1 5 9 7 8 7 6 6 1 4 7 9 9 8 7 5 1 5 10 6 1 2 1 2 1 2 2 2 4 3 6 7 6 7 7 7 3 8 10 10 11 10 10 11 11 10 8 6 5 4 3
20 19 21 22 22 19 10 4 6 8 8 5 5 13 12 6 4 1 3 5 2 4 2 3 5 5 7 7 7 4 3 2 0 2 4 1 1 0 4 6 6 9 8 6 5 2 3 1 3 7 7 5 3 6 2 4 3 3 4 4 4 3 1 2 3 3 2 5 7 7 10 5 8 3 8 6 6 8 8 9 9 9 7 3 3 3 3 3
21 22 23 23 24 23 13 7 10 9 6 6 7 12 10 4 3 4 4 4 3 3 3 3 5 7 12 11 7 6 5 2 3 5 5 4 3 1 2 1 2 4 4 4 4 1 3 1 1 2 2 1 5 7 5 3 3 6 7 4 3 3 2 2 3 1 2 7 7 9 15 9 8 3 7 5 5 7 7 7 7 7 5 3 3 2 3 4
19 22 26 27 26 26 15 6 15 13 4 5 9 11 7 2 3 7 6 1 1 3 5 4 6 11 16 15 9 8 7 4 6 10 6 4 6 4 3 3 2 2 3 5 4 3 3 2 2 1 1 3 6 6 5 4 3 5 4 4 3 3 2 3 4 3 4 8 3 3 9 11 10 4 4 4 4 7 7 8 8 7 6 3 2 3 3 4
15 18 26 31 29 28 19 8 15 16 6 8 12 7 4 4 3 7 5 3 1 6 8 8 9 12 16 14 8 9 9 6 8 10 8 8 8 8 9 8 7 5 6 7 5 3 3 5 4 3 1 4 6 5 4 2 3 4 4 5 4 4 3 4 5 4 6 7 1 4 2 7 11 8 9 9 6 7 8 8 8 7 8 7 2 4 4 4
12 14 22 32 32 30 26 16 15 16 11 12 9 2 3 6 5 9 9 5 2 3 5 7 10 12 15 12 8 9 8 6 9 10 8 9 8 9 12 12 12 9 5 7 7 4 3 3 5 6 2 5 8 6 5 4 6 7 7 7 6 5 5 6 6 5 6 5 2 4 2 5 7 7 12 18 15 11 10 9 7 6 8 10 5 3 4 5
8 12 17 29 34 32 30 23 16 17 18 13 4 2 5 8 7 10 12 6 2 3 4 7 11 13 13 8 6 11 7 5 11 9 7 9 7 8 11 13 15 10 3 5 6 7 7 4 7 11 6 8 12 8 5 5 7 9 7 6 7 6 6 6 5 6 6 3 0 3 3 4 3 1 3 7 8 9 9 10 9 7 8 8 6 4 5 6
8 11 12 21 30 30 30 26 19 22 21 11 2 4 8 10 8 10 11 5 4 3 5 9 11 11 10 3 3 9 4 2 10 9 7 10 9 9 10 11 15 12 6 7 5 7 10 6 8 8 4 13 14 6 3 5 5 6 5 6 7 5 6 5 2 2 2 4 3 4 4 5 4 4 3 2 2 5 7 9 10 10 10 8 7 7 7 6
8 9 9 14 23 28 29 25 23 26 20 9 3 5 9 10 6 7 6 4 6 8 11 10 8 7 8 3 2 6 1 1 9 7 5 9 8 9 10 9 14 15 12 9 3 4 7 3 6 5 2 8 7 2 3 2 2 5 6 6 2 2 3 5 3 3 2 5 6 5 7 8 7 10 10 12 10 9 8 8 10 10 11 9 8 8 7 4
9 9 8 12 20 27 31 26 25 27 16 7 9 8 9 8 3 2 2 3 9 14 12 8 7 7 9 6 5 8 5 3 8 7 5 7 6 9 12 9 11 17 16 11 4 3 5 2 2 3 2 3 2 2 2 2 1 3 5 5 3 4 2 4 5 2 3 8 6 5 10 10 7 6 5 11 11 9 10 10 11 11 11 10 9 8 7 5
7 8 8 13 19 25 30 30 26 20 8 5 11 10 8 8 5 2 1 1 10 14 10 8 8 9 10 9 8 11 10 6 8 8 6 6 5 10 14 9 9 16 18 13 5 1 4 4 0 1 0 3 2 1 4 1 0 0 1 2 2 2 5 5 6 5 6 8 6 7 11 10 9 7 4 8 11 10 11 12 11 12 11 10 10 9 9 7
5 5 6 12 19 20 28 32 22 10 3 4 9 8 5 8 6 1 3 3 6 11 11 10 9 8 10 10 9 12 12 10 10 9 7 7 6 9 15 11 9 15 17 14 7 2 4 6 3 0 1 4 5 5 7 6 3 0 2 3 2 2 4 4 5 5 5 7 7 8 10 9 8 9 10 11 11 11 12 11 10 11 11 10 8 7 6 5
4 4 3 11 18 21 28 28 14 6 3 3 5 4 4 7 7 2 4 4 3 5 7 11 12 10 10 10 9 11 11 11 11 9 8 9 7 7 12 13 9 12 16 16 11 5 4 5 4 2 0 3 6 8 10 11 9 6 6 7 5 3 1 2 4 5 4 5 6 7 10 10 4 3 7 7 7 10 10 8 8 8 10 9 6 5 4 3
4 4 3 10 19 25 26 16 6 6 4 1 3 4 5 6 7 5 1 5 2 1 1 4 7 8 9 10 10 10 9 10 11 9 8 10 10 6 8 13 11 11 13 13 12 9 6 6 6 4 4 7 6 5 6 8 8 9 9 10 10 8 5 4 5 5 2 4 5 5 10 11 2 4 2 2 4 7 7 7 6 7 9 8 5 4 3 3
5 5 3 12 25 28 19 6 3 5 3 2 3 4 5 4 4 6 4 3 3 2 2 3 3 5 8 9 10 10 9 9 11 11 8 11 14 8 6 10 12 14 12 9 12 10 4 4 6 6 6 5 2 3 2 0 2 4 6 7 9 8 7 8 7 5 4 4 3 3 9 11 1 6 2 3 4 3 4 4 7 8 9 6 4 3 3 3
6 5 2 13 29 27 12 6 6 4 2 4 4 3 5 4 3 5 5 3 1 1 1 2 2 2 3 4 7 10 10 8 10 12 10 11 10 3 3 8 12 14 11 7 9 7 2 2 7 6 3 2 2 3 2 1 1 4 4 4 5 8 10 8 4 3 4 5 4 4 9 10 1 6 2 2 3 1 1 4 8 8 6 2 3 2 3 2
5 5 1 11 30 26 10 7 8 6 5 6 6 7 7 5 5 6 6 6 5 2 2 3 2 1 1 2 1 6 8 7 9 11 9 8 5 3 2 8 11 12 9 4 5 7 5 5 7 6 5 4 4 5 3 3 4 5 6 7 9 12 11 3 1 2 4 8 11 8 10 11 1 6 3 3 3 3 4 5 6 6 3 1 2 2 3 3
3 4 2 7 20 19 9 7 8 9 9 9 8 9 9 6 7 11 9 6 4 3 3 2 1 2 1 2 3 1 2 2 4 5 4 4 3 3 2 3 9 12 6 3 2 6 6 5 7 8 8 8 8 6 5 6 6 4 8 12 13 15 13 6 3 6 8 11 12 9 10 15 10 3 5 5 5 6 6 6 5 4 4 3 1 2 3 3
3 4 4 4 7 8 7 8 9 9 10 11 8 9 12 10 7 11 12 7 5 5 3 1 1 2 1 1 0 1 2 1 1 1 2 3 2 2 3 2 5 8 2 7 3 3 1 2 7 11 11 11 8 3 5 9 8 8 11 14 15 15 15 10 5 8 11 10 11 12 13 19 22 17 10 5 5 6 7 7 7 5 5 4 3 4 4 3
3 4 6 5 3 5 5 7 10 11 11 11 7 8 15 15 9 9 11 9 8 9 6 3 4 5 5 6 6 5 5 4 2 2 5 4 0 1 2 2 4 3 4 4 1 3 2 3 7 11 13 12 10 5 7 12 11 13 14 15 15 15 15 13 10 13 14 11 12 14 15 18 24 24 19 13 9 8 8 11 11 9 7 5 5 5 4 5
5 5 5 3 2 4 4 4 8 12 16 15 9 8 15 17 13 9 9 9 9 9 7 4 7 11 11 11 9 6 7 8 7 6 6 5 3 2 1 0 2 0 3 1 1 3 4 4 5 8 11 14 14 12 6 7 8 12 14 15 16 16 16 15 16 18 17 13 13 14 15 19 21 23 22 16 13 14 14 13 13 12 9 7 6 5 5 6
6 5 4 2 3 3 2 2 3 8 14 14 11 11 14 17 18 12 8 8 9 11 10 8 11 15 16 14 11 8 8 8 7 8 8 7 6 5 3 3 2 1 3 2 1 1 3 4 6 8 10 14 16 15 13 12 11 11 13 14 14 16 19 20 20 22 22 19 17 18 21 22 21 22 23 18 14 15 17 15 12 12 11 8 6 6 7 6
6 5 4 3 4 5 3 3 3 3 7 8 9 11 12 16 18 14 11 12 10 10 14 14 14 15 16 15 12 10 11 11 10 11 10 9 7 5 5 5 2 2 1 3 1 1 2 5 8 7 6 11 15 16 16 14 13 14 14 14 14 16 20 22 20 18 18 18 20 22 24 22 18 20 22 21 17 14 16 19 14 10 9 8 9 11 11 8
10 5 3 3 5 6 6 6 4 3 4 5 6 9 11 16 18 15 12 14 13 11 15 19 18 13 13 15 15 14 14 14 14 14 12 11 10 8 7 6 5 4 2 3 2 2 3 4 4 4 5 9 12 16 18 16 14 13 13 15 19 20 19 15 13 13 15 17 19 20 17 16 17 17 17 19 20 17 18 20 16 12 11 11 12 15 16 13
12 5 3 4 5 6 7 7 6 6 5 4 6 7 7 10 15 15 11 10 14 14 14 18 18 11 10 15 17 16 15 13 12 10 6 6 9 9 8 6 7 7 6 5 3 4 5 3 3 5 5 7 13 15 14 12 10 9 12 18 22 22 19 15 13 17 20 17 14 13 13 14 16 17 16 19 20 19 19 18 15 15 17 15 14 16 17 17
Wind_Direction
195 187 185 181 183 188 185 186 193 193 194 192 193 196 198 203 204 206 201 201 201 195 197 198 202 208 207 220 235 250 238 210 207 209 219 209 171 177 171 147 132 151 137 136 166 200 209 197 173 196 209 176 277 95 144 355 345 241 217 227 236 220 187 151 184 178 5 114 141 162 177 195 175 164 171 149 225 227 197 206 193 180 200 120 109 124 133 143
201 191 184 187 188 190 192 193 197 198 196 193 198 201 202 208 209 211 205 203 203 198 197 195 203 205 207 221 223 244 226 208 228 203 165 218 202 186 176 170 177 164 151 175 214 220 225 192 167 202 212 178 172 178 192 55 280 240 229 234 241 145 75 61 17 85 23 22 146 160 186 206 186 158 163 202 215 205 221 219 202 215 204 159 139 144 146 154
211 201 188 189 193 192 195 197 201 202 198 198 205 206 204 211 212 213 211 206 203 201 199 197 202 203 209 217 223 242 212 220 230 180 120 220 196 182 175 176 183 176 176 244 260 244 260 207 177 209 211 189 168 186 200 155 262 249 257 240 224 61 76 61 38 78 51 15 151 157 173 201 188 138 163 219 232 210 226 229 209 217 212 187 167 159 158 165
203 199 194 193 196 199 201 195 198 205 206 206 210 210 207 209 212 213 211 208 204 200 199 199 200 203 210 215 226 231 206 228 217 123 139 200 175 177 175 167 170 181 180 223 253 242 249 203 194 217 218 190 143 188 193 113 274 194 242 274 33 36 86 78 70 79 54 12 140 137 153 200 179 149 188 220 239 227 229 233 221 225 226 193 171 166 167 173
205 200 195 195 200 204 207 198 196 207 214 214 215 214 210 209 212 210 208 209 204 198 196 198 199 202 208 216 223 222 233 228 146 96 147 162 158 166 171 167 169 169 162 194 215 209 216 204 196 209 223 189 158 191 169 102 306 204 195 6 29 346 45 87 87 74 48 13 100 138 169 189 148 197 220 223 235 234 241 253 228 233 258 165 160 169 172 179
218 217 209 200 201 207 206 205 205 212 220 221 222 220 216 212 209 206 206 205 202 197 194 196 197 200 202 213 219 222 245 227 91 122 137 137 147 149 155 159 176 158 153 212 216 207 212 205 199 202 214 184 173 183 122 119 257 244 149 83 47 8 40 87 92 70 14 289 165 160 155 144 192 229 225 224 237 246 55 49 44 59 57 131 155 167 176 186
217 222 224 210 204 208 207 210 209 217 225 221 223 225 222 216 210 204 201 201 202 197 193 195 197 200 195 190 192 220 238 177 98 158 133 132 137 135 144 142 155 148 175 237 216 207 208 207 207 205 201 164 172 150 102 144 223 269 152 117 84 34 51 68 73 93 197 243 115 42 350 227 228 240 231 227 240 250 225 94 80 79 88 140 164 173 188 195
216 225 233 223 209 206 208 210 212 223 221 211 215 222 223 222 215 205 199 199 200 196 195 196 195 198 189 184 213 220 219 104 128 156 135 134 130 128 134 121 127 131 231 248 228 221 210 212 206 203 198 126 140 136 126 183 197 260 136 121 119 72 79 79 83 130 146 226 20 271 238 232 242 293 292 246 241 248 242 162 132 132 126 168 189 192 199 201
221 230 236 228 217 207 203 205 216 224 211 203 212 222 225 224 219 206 199 197 198 198 195 196 196 194 188 196 250 227 179 116 151 157 142 136 122 123 120 120 167 182 218 228 276 245 213 217 194 209 193 89 133 136 161 222 175 35 118 128 139 114 96 107 143 150 165 203 154 214 223 209 277 323 277 250 241 237 231 198 176 183 190 202 208 208 207 206
226 234 236 229 227 216 200 206 218 216 207 206 205 215 225 224 220 204 198 196 200 199 195 199 194 186 190 210 237 224 109 124 159 157 149 137 112 111 116 148 176 219 217 120 345 280 264 262 126 241 354 101 143 120 323 271 34 73 117 123 129 123 114 143 178 153 191 200 173 234 240 189 145 291 257 244 231 189 189 218 211 208 221 220 217 216 215 214
231 239 238 231 232 219 203 216 215 199 208 210 199 208 216 216 215 201 197 197 198 199 195 195 187 183 204 232 234 213 96 131 163 158 151 137 114 119 148 150 145 189 205 96 57 12 357 27 85 263 292 137 144 104 64 24 34 95 125 159 163 163 146 176 204 161 203 191 166 256 272 241 173 231 248 219 93 148 194 224 213 215 231 226 225 221 217 220
234 238 232 225 224 212 208 219 207 197 212 212 205 210 206 212 217 201 197 197 195 196 190 186 184 183 214 240 244 130 113 140 159 158 150 134 119 125 133 135 131 124 317 101 81 37 54 54 333 284 58 156 156 116 111 125 17 122 180 224 180 198 203 186 189 152 219 195 123 277 271 246 209 225 247 209 135 170 207 236 225 223 232 225 225 220 217 220
230 227 218 210 208 204 209 214 204 204 217 215 206 199 197 214 220 202 199 198 194 192 186 183 183 185 225 230 137 105 125 143 154 153 148 133 112 111 116 120 122 117 51 108 102 88 97 35 312 22 45 268 136 101 139 145 220 164 196 266 203 220 209 175 168 147 207 165 114 238 269 258 214 221 238 176 156 202 229 246 244 237 234 226 222 216 223 219
220 213 206 202 203 204 205 205 202 206 218 223 208 197 199 208 206 194 195 196 195 193 185 184 182 191 230 197 103 132 134 134 146 150 149 138 112 104 104 107 111 113 111 104 100 99 93 42 326 118 49 2 99 145 168 150 206 189 182 245 235 248 172 145 157 170 195 161 143 218 258 277 261 210 178 124 167 220 247 253 248 243 235 226 220 219 227 222
213 210 206 202 201 200 197 196 200 208 220 234 236 223 205 199 190 182 187 188 189 188 182 192 186 200 232 176 115 162 144 135 151 161 156 146 135 123 111 108 105 104 104 101 98 88 72 31 182 131 87 45 148 178 174 162 201 204 216 215 206 238 160 139 149 181 195 131 172 210 254 264 270 117 104 96 186 213 250 262 259 252 240 230 224 225 232 229
207 202 200 200 202 199 192 193 199 206 216 233 241 227 201 195 182 175 178 174 173 170 160 195 193 235 254 157 124 165 168 171 173 172 164 152 150 140 127 116 105 102 99 95 96 84 56 42 29 107 122 164 193 197 194 197 204 197 233 238 186 220 222 153 130 185 221 117 187 216 260 272 248 102 110 149 199 212 246 264 265 258 248 237 231 231 233 231
198 185 184 190 200 200 194 199 203 201 207 212 210 198 174 159 157 155 153 152 146 139 140 284 206 241 268 114 135 176 165 173 173 176 175 162 145 140 140 129 115 117 117 110 112 115 33 87 124 227 190 206 208 206 210 213 217 196 211 248 234 240 258 239 137 134 174 212 223 223 246 264 267 270 229 187 195 221 251 263 262 260 253 244 237 235 235 233
193 182 180 181 187 192 193 197 200 199 199 191 173 145 126 117 122 122 123 131 114 94 83 304 218 231 226 161 156 137 132 147 161 171 180 170 152 153 161 145 141 145 148 152 172 199 217 155 214 219 186 207 202 202 213 223 257 204 188 233 248 232 243 256 210 141 170 207 246 243 249 262 265 268 264 247 232 239 258 263 261 259 257 253 246 244 241 237
191 187 181 175 177 182 184 185 188 193 182 160 137 116 104 101 103 112 123 142 144 144 179 187 189 206 160 150 118 91 119 137 147 157 167 163 158 165 169 147 157 180 188 185 173 180 211 182 209 226 204 204 200 210 224 341 18 8 208 275 280 259 248 258 124 126 190 237 252 253 259 269 271 270 268 267 261 258 263 264 262 257 252 251 248 247 243 238
182 184 180 175 173 173 176 178 179 175 161 146 140 124 120 135 133 141 170 213 219 237 3 208 190 160 84 116 111 111 119 126 145 157 160 160 158 164 161 154 167 205 219 203 147 147 267 217 205 222 226 216 204 207 215 47 35 338 303 285 274 276 274 275 110 119 165 262 262 260 262 270 274 275 274 274 271 268 266 263 262 256 248 244 242 244 241 240
177 178 176 172 170 171 175 175 176 174 162 156 183 200 173 160 172 163 165 213 233 36 8 356 38 73 83 110 136 140 127 124 160 159 163 166 170 177 168 170 191 199 192 132 107 124 238 231 227 225 224 96 177 180 130 55 328 276 266 271 265 260 268 281 110 132 154 229 266 269 268 267 270 275 276 273 268 263 261 260 260 258 254 249 243 243 243 243
182 179 174 170 170 172 174 174 180 182 168 167 211 239 312 12 136 120 149 219 213 167 248 307 19 100 82 113 160 176 198 164 153 164 170 172 187 196 169 179 212 193 148 142 148 174 210 231 232 190 103 82 98 140 195 232 243 242 242 255 263 265 278 283 119 125 157 219 275 282 277 269 268 272 270 265 261 257 256 257 260 264 261 256 251 249 249 246
182 180 178 176 173 172 174 182 186 187 183 191 216 232 298 325 155 97 274 240 189 161 205 220 221 179 130 146 183 197 207 172 162 172 174 180 192 202 177 186 214 188 160 189 200 208 215 225 215 120 117 133 142 166 185 210 225 224 229 241 248 257 300 272 145 115 212 223 286 294 282 270 261 260 261 257 254 255 259 260 260 259 258 257 257 258 256 251
179 177 181 177 173 174 169 176 183 196 207 224 239 230 241 286 208 280 297 255 183 153 193 207 247 214 167 136 178 196 210 189 175 164 172 188 176 178 197 198 209 198 190 205 210 228 226 94 81 132 166 182 165 170 187 201 219 218 221 233 249 252 264 267 301 326 282 229 272 294 280 267 239 236 250 250 242 248 252 256 257 250 247 251 255 257 253 249
182 178 179 173 172 171 159 170 191 204 211 239 246 228 223 241 230 308 296 246 214 156 173 186 201 213 172 130 171 191 201 191 182 147 168 194 174 157 194 205 216 210 206 205 213 238 226 102 114 148 172 198 181 183 196 206 230 220 210 221 245 264 277 280 307 334 303 250 121 322 298 286 193 218 244 232 225 244 238 235 246 248 243 242 243 244 241 240
188 183 179 175 173 167 156 187 200 193 203 237 245 225 222 226 193 345 240 249 239 173 154 174 171 184 173 155 157 143 216 203 97 110 159 191 231 160 192 167 220 235 209 196 217 250 183 122 145 148 155 182 190 210 198 199 239 241 199 213 240 259 272 277 291 305 293 297 300 28 304 292 264 243 250 247 251 259 251 238 246 253 253 245 239 236 233 231
195 190 185 181 179 171 154 152 169 162 189 243 241 221 216 211 195 314 208 243 247 166 142 166 181 179 169 161 161 156 209 155 105 113 156 177 181 44 230 181 162 239 180 160 224 226 144 161 178 160 160 175 200 227 188 191 233 258 53 18 214 229 243 249 271 254 277 316 291 207 213 276 279 249 231 231 248 260 259 254 256 258 260 258 249 239 231 228
209 201 191 186 187 183 168 134 159 173 223 275 223 207 203 199 203 249 212 234 228 140 144 162 133 143 140 156 174 172 98 125 139 157 100 120 192 168 229 207 194 195 175 183 220 196 135 177 183 174 183 197 202 192 159 190 220 57 73 44 98 135 230 215 248 263 281 316 286 197 169 257 280 205 186 206 234 253 255 257 263 263 264 262 251 242 229 208
220 215 202 193 192 195 191 178 182 204 237 262 217 198 188 185 212 219 216 227 169 121 141 143 139 142 138 153 181 167 113 114 153 131 113 142 222 267 235 228 219 191 177 211 230 36 57 192 198 189 201 206 139 56 58 198 198 123 128 97 89 107 108 169 239 281 287 282 268 185 163 248 285 183 158 184 223 239 249 258 261 265 268 250 214 223 194 155
219 221 213 198 192 197 198 220 229 221 234 250 215 183 171 174 209 192 200 215 183 142 103 131 167 164 157 162 180 184 166 112 76 126 143 167 174 236 280 267 245 180 163 240 253 82 82 57 316 225 218 147 101 69 32 35 110 141 148 127 120 154 149 193 234 272 269 266 259 183 173 213 273 191 159 191 206 208 236 258 253 257 265 233 180 195 168 144
215 219 216 203 193 193 192 225 228 217 231 227 178 157 165 187 211 203 196 197 243 162 127 154 163 157 169 173 171 181 176 138 139 154 155 161 172 186 187 173 188 177 192 236 228 161 146 158 159 151 86 118 110 89 51 52 129 161 167 176 185 194 189 207 207 181 235 256 273 147 178 215 244 219 184 225 193 190 223 252 259 269 278 264 157 149 139 132
212 215 214 208 199 194 192 210 219 210 196 169 156 145 181 180 211 227 198 98 189 180 158 171 169 166 180 181 168 171 172 158 167 175 171 170 182 185 192 192 170 180 221 219 199 159 194 202 154 113 188 190 157 122 93 93 181 203 193 186 208 222 211 223 211 192 233 247 108 82 137 236 247 249 253 258 235 209 224 246 266 277 281 281 223 147 138 140
212 211 213 209 203 198 198 208 216 200 164 147 154 148 205 189 200 213 197 166 165 163 137 150 162 167 176 181 177 165 168 173 173 183 182 176 193 199 206 209 191 198 234 201 185 170 193 201 160 158 188 210 201 177 161 176 186 196 193 184 201 216 226 234 223 221 242 245 132 113 141 252 264 261 245 244 243 236 234 243 258 266 266 275 272 181 155 163
222 212 213 211 206 203 203 208 210 183 149 129 136 149 184 207 207 201 206 201 132 75 87 129 147 163 175 183 174 159 167 189 172 177 183 179 202 208 207 216 208 215 244 194 191 186 207 236 179 178 166 173 201 217 198 168 175 198 202 200 213 220 236 246 239 246 258 282 212 156 182 232 242 25 225 239 249 239 236 240 246 256 256 267 275 239 208 199
231 219 221 215 208 204 203 204 198 172 147 120 104 170 185 204 209 209 210 180 127 101 107 131 139 160 180 186 166 169 173 197 175 179 187 187 206 207 200 208 206 208 206 202 203 183 215 239 159 155 145 165 184 216 180 144 170 200 198 215 234 238 247 261 270 247 307 323 267 200 235 246 246 292 263 204 223 211 218 232 235 248 255 259 270 256 242 223
227 224 228 221 210 204 201 200 186 166 147 121 141 192 202 205 209 213 198 152 151 140 128 140 146 165 185 181 193 193 201 80 170 178 201 206 223 219 209 206 198 200 200 197 196 176 211 238 130 128 119 165 180 198 167 178 198 180 183 205 222 17 275 253 242 112 95 281 262 221 254 270 281 279 237 211 225 213 198 215 225 238 249 253 261 261 257 237
221 220 227 226 216 206 202 199 180 164 150 141 173 198 212 212 235 248 192 143 146 142 141 162 175 182 187 185 196 192 179 140 167 183 194 194 228 225 214 215 196 198 204 204 217 214 209 233 132 166 161 142 351 6 143 345 6 154 186 190 115 46 313 248 249 230 219 254 262 236 254 267 273 277 203 193 220 222 209 215 223 231 238 243 246 251 261 250
228 216 234 234 220 207 200 195 180 164 152 159 186 205 213 212 237 294 321 146 144 151 172 193 184 189 193 191 189 180 175 170 172 191 192 178 217 210 197 204 199 198 205 209 225 230 199 216 186 8 157 116 79 196 177 179 17 119 285 177 151 223 219 206 226 242 240 249 264 258 261 261 239 242 231 201 203 207 216 217 219 230 234 238 240 239 251 253
252 227 242 226 217 211 196 187 174 158 160 173 190 210 213 217 234 316 352 292 179 173 194 203 193 200 205 197 179 168 178 185 171 181 197 186 204 198 185 189 200 201 200 200 209 175 174 217 217 17 344 124 138 204 202 180 167 294 294 235 214 248 237 213 209 226 243 246 262 274 271 261 236 235 244 233 209 201 214 214 212 225 232 235 237 228 231 238
250 248 228 193 203 204 188 178 166 156 175 182 201 209 197 218 239 283 0 329 243 195 206 211 204 202 204 198 177 163 182 198 182 187 202 187 192 201 190 190 194 196 193 193 205 196 166 213 214 143 127 177 182 204 202 187 176 188 214 213 200 182 258 283 232 223 245 251 258 276 275 268 255 211 225 231 211 205 210 203 201 220 232 232 228 218 208 199
228 252 219 172 183 182 174 174 178 170 165 190 219 217 204 214 232 228 323 8 335 331 322 242 226 209 195 189 181 167 178 200 195 198 205 194 204 215 190 192 186 170 175 188 203 205 190 200 198 162 181 209 206 192 199 195 183 191 201 205 203 189 182 225 224 207 215 252 251 266 275 271 242 114 176 199 186 192 189 195 213 234 238 227 208 204 197 183
227 236 183 164 175 170 163 190 214 158 164 199 184 195 202 208 220 204 188 25 353 335 344 314 288 231 197 193 193 174 170 196 200 200 210 208 212 213 182 191 180 157 160 186 199 198 186 192 205 199 193 202 171 81 78 210 201 223 223 215 212 195 189 210 216 195 179 220 259 280 275 273 174 115 169 183 171 175 170 223 256 251 237 215 168 168 183 184
228 228 150 165 175 168 161 217 199 159 206 198 173 177 185 194 212 194 187 180 160 349 274 261 290 254 214 206 198 180 176 194 200 202 214 218 216 209 158 184 173 162 168 187 191 178 108 193 214 218 201 157 107 103 80 54 217 241 239 220 217 207 204 212 225 220 185 191 217 227 251 264 91 101 148 145 119 147 198 254 260 248 234 180 141 175 185 173
234 239 312 182 182 175 175 214 198 191 200 187 194 202 194 205 216 204 200 193 183 168 191 227 275 294 330 351 183 182 190 200 204 208 217 219 212 46 84 178 173 176 184 182 171 162 159 194 204 212 218 201 192 201 208 191 196 229 223 206 212 214 208 191 48 263 229 211 216 222 244 256 241 97 127 147 144 195 216 233 247 251 249 161 159 203 186 165
245 236 272 208 192 186 199 215 201 203 198 185 196 200 195 208 216 211 212 197 177 172 175 216 295 62 81 357 32 100 223 207 198 219 240 223 193 50 24 195 188 195 194 52 96 171 177 189 186 197 216 215 210 214 207 183 175 211 224 213 213 213 207 200 197 224 235 230 224 224 244 257 260 198 156 161 170 200 215 213 217 247 260 252 232 229 204 186
234 226 215 213 206 206 224 225 214 216 203 190 195 198 197 206 207 203 210 206 182 187 194 172 134 113 146 213 272 284 274 280 106 231 252 222 151 65 14 331 231 216 120 56 83 160 157 223 201 207 219 220 224 217 135 140 158 192 210 211 211 209 207 212 217 219 231 241 240 233 238 258 267 258 238 221 201 206 221 222 214 217 232 243 242 233 231 233
233 230 208 204 213 213 232 233 221 219 204 189 184 185 196 207 207 188 199 208 186 184 202 195 177 188 188 193 212 230 236 243 265 266 238 230 214 67 52 5 283 271 53 61 128 125 112 241 225 229 239 244 256 258 148 145 169 196 204 206 207 207 205 207 217 226 227 235 246 239 232 247 263 264 259 259 257 249 243 242 241 229 211 209 218 219 229 242
226 235 223 234 264 219 226 236 228 226 213 199 192 191 195 204 208 190 189 207 197 182 192 201 193 197 197 190 194 201 204 216 237 246 243 240 233 210 93 46 251 155 93 89 334 107 155 226 233 238 254 261 270 276 242 197 200 202 204 205 203 201 203 206 220 229 226 229 244 249 243 244 255 266 267 263 265 268 265 259 255 244 224 199 192 206 221 232
224 242 249 275 290 260 232 174 216 242 227 214 212 210 201 202 206 197 175 187 203 195 192 206 208 203 203 196 188 194 195 192 212 228 231 232 223 213 224 233 226 88 117 142 52 104 167 221 232 234 254 260 262 269 266 258 256 243 232 225 209 199 201 207 218 226 227 232 243 251 255 254 255 264 270 273 272 273 277 277 263 245 235 216 201 222 231 222
219 232 238 238 250 262 265 206 197 243 236 229 228 219 211 210 207 200 183 180 189 193 195 210 214 204 203 204 199 208 204 191 203 214 209 212 214 206 222 224 186 45 59 132 126 263 196 202 216 222 248 258 259 265 264 260 260 258 255 252 239 222 211 208 214 223 228 235 238 242 253 259 258 261 269 277 277 274 277 276 263 243 241 233 225 238 245 235
228 245 245 240 239 235 241 239 221 216 223 222 227 225 223 221 214 209 203 192 186 183 190 206 215 206 200 206 209 216 214 204 213 220 206 201 204 198 204 203 168 144 148 156 148 170 189 199 206 201 227 249 250 252 255 256 257 258 259 256 246 238 231 220 211 214 221 229 234 238 246 256 261 264 269 273 274 273 272 272 267 258 259 252 240 248 256 253
225 242 228 229 245 235 239 245 227 224 230 196 202 225 238 235 224 219 219 205 197 196 192 200 210 208 202 209 213 219 221 216 224 237 222 201 213 213 206 204 190 168 164 176 162 150 174 198 215 201 214 243 242 241 248 254 257 251 241 239 238 238 243 243 229 219 219 222 230 237 239 248 261 269 269 265 267 268 267 270 272 268 269 262 247 250 261 262